EN

Hourly Weather Barranco de Loba

Today, 2 March, Tuesday

Time Temperature Precipitation Wind Pressure Humidity
00:00 +24°C° 0 mm 0 mps 754 mmHg 57%
01:00 +24°C° 0 mm 0 mps 754 mmHg 59%
02:00 +23°C° 0 mm 0 mps 754 mmHg 63%
03:00 +22°C° 0 mm 0 mps 754 mmHg 67%
04:00 +22°C° 0 mm 0 mps 754 mmHg 70%
05:00 +22°C° 0 mm 0 mps 754 mmHg 70%
06:00 +23°C° 0 mm 0 mps 755 mmHg 71%
07:00 +23°C° 0 mm 0 mps 755 mmHg 70%
08:00 +27°C° 0 mm 0 mps 755 mmHg 59%
09:00 +31°C° 0 mm 0 mps 756 mmHg 49%
10:00 +35°C° 0 mm 0 mps 756 mmHg 38%
11:00 +36°C° 0 mm 0 mps 755 mmHg 34%
12:00 +40°C° 0 mm 1 mps 754 mmHg 30%
13:00 +41°C° 0 mm 1 mps 753 mmHg 26%
14:00 +41°C° 0 mm 1 mps 753 mmHg 25%
15:00 +41°C° 0 mm 1 mps 752 mmHg 24%
16:00 +40°C° 0 mm 1 mps 752 mmHg 24%
17:00 +37°C° 0 mm 1 mps 752 mmHg 29%
18:00 +34°C° 0 mm 1 mps 752 mmHg 34%
19:00 +31°C° 0 mm 2 mps 753 mmHg 39%
20:00 +30°C° 0 mm 1 mps 754 mmHg 44%
21:00 +29°C° 0 mm 1 mps 754 mmHg 48%
22:00 +28°C° 0 mm 1 mps 755 mmHg 52%
23:00 +27°C° 0 mm 1 mps 755 mmHg 56%

Tomorrow, 3 March, Wednesday

Time Temperature Precipitation Wind Pressure Humidity
00:00 +24°C° 0 mm 0 mps 755 mmHg 59%
01:00 +24°C° 0 mm 0 mps 755 mmHg 62%
02:00 +23°C° 0 mm 0 mps 755 mmHg 66%
03:00 +23°C° 0 mm 0 mps 755 mmHg 70%
04:00 +22°C° 0 mm 0 mps 755 mmHg 74%
05:00 +23°C° 0 mm 0 mps 755 mmHg 73%
06:00 +23°C° 0 mm 0 mps 756 mmHg 72%
07:00 +23°C° 0 mm 0 mps 756 mmHg 72%
08:00 +27°C° 0 mm 0 mps 756 mmHg 59%
09:00 +31°C° 0 mm 0 mps 756 mmHg 46%
10:00 +34°C° 0 mm 0 mps 756 mmHg 34%
11:00 +36°C° 0 mm 0 mps 756 mmHg 30%
12:00 +41°C° 0 mm 1 mps 755 mmHg 25%
13:00 +42°C° 0 mm 1 mps 754 mmHg 21%
14:00 +42°C° 0 mm 1 mps 753 mmHg 22%
15:00 +41°C° 0 mm 1 mps 752 mmHg 22%
16:00 +40°C° 0 mm 2 mps 752 mmHg 22%
17:00 +37°C° 0 mm 1 mps 752 mmHg 28%
18:00 +34°C° 0 mm 1 mps 753 mmHg 33%
19:00 +29°C° 0 mm 0 mps 753 mmHg 38%
20:00 +30°C° 0 mm 1 mps 754 mmHg 43%
21:00 +29°C° 0 mm 1 mps 755 mmHg 48%
22:00 +28°C° 0 mm 1 mps 756 mmHg 54%
23:00 +27°C° 0 mm 1 mps 756 mmHg 59%

Day after tomorrow, 4 March, Thursday

Time Temperature Precipitation Wind Pressure Humidity
00:00 +27°C° 0 mm 1 mps 756 mmHg 65%
01:00 +26°C° 0 mm 1 mps 756 mmHg 71%
02:00 +23°C° 0 mm 0 mps 756 mmHg 74%
03:00 +23°C° 0 mm 0 mps 756 mmHg 77%
04:00 +22°C° 0 mm 0 mps 756 mmHg 80%
05:00 +23°C° 0 mm 0 mps 756 mmHg 80%
06:00 +23°C° 0 mm 0 mps 756 mmHg 79%
07:00 +23°C° 0 mm 0 mps 757 mmHg 79%
08:00 +27°C° 0 mm 0 mps 757 mmHg 66%
09:00 +32°C° 0 mm 1 mps 757 mmHg 54%
10:00 +35°C° 0 mm 1 mps 757 mmHg 42%
11:00 +37°C° 0 mm 1 mps 756 mmHg 36%
12:00 +39°C° 0 mm 1 mps 755 mmHg 31%
13:00 +41°C° 0 mm 1 mps 754 mmHg 26%
14:00 +41°C° 0 mm 1 mps 754 mmHg 25%
15:00 +41°C° 0 mm 1 mps 753 mmHg 25%
16:00 +40°C° 0 mm 2 mps 753 mmHg 24%
17:00 +38°C° 0 mm 2 mps 753 mmHg 29%
18:00 +35°C° 0 mm 2 mps 753 mmHg 35%
19:00 +32°C° 0 mm 1 mps 754 mmHg 41%
20:00 +31°C° 0 mm 1 mps 754 mmHg 49%
21:00 +30°C° 0 mm 1 mps 755 mmHg 57%
22:00 +26°C° 0 mm 0 mps 756 mmHg 66%
23:00 +26°C° 0.2 mm 0 mps 756 mmHg 71%

5 March, Friday

Time Temperature Precipitation Wind Pressure Humidity
00:00 +27°C° 0.2 mm 1 mps 756 mmHg 76%
01:00 +26°C° 0.2 mm 1 mps 755 mmHg 82%
02:00 +26°C° 0.4 mm 1 mps 755 mmHg 84%
03:00 +25°C° 0.4 mm 1 mps 755 mmHg 86%
04:00 +25°C° 0.4 mm 1 mps 755 mmHg 89%
05:00 +25°C° 0 mm 1 mps 756 mmHg 88%
06:00 +26°C° 0 mm 1 mps 756 mmHg 87%
07:00 +26°C° 0 mm 1 mps 756 mmHg 87%
08:00 +29°C° 0 mm 1 mps 757 mmHg 74%
09:00 +31°C° 0 mm 1 mps 757 mmHg 61%
10:00 +34°C° 0 mm 1 mps 757 mmHg 49%
11:00 +36°C° 0 mm 1 mps 756 mmHg 42%
12:00 +40°C° 0 mm 1 mps 755 mmHg 36%
13:00 +39°C° 0 mm 0 mps 754 mmHg 29%
14:00 +41°C° 0 mm 1 mps 753 mmHg 31%
15:00 +40°C° 0 mm 1 mps 752 mmHg 32%
16:00 +39°C° 0 mm 2 mps 752 mmHg 33%
17:00 +37°C° 0 mm 2 mps 752 mmHg 39%
18:00 +35°C° 0 mm 2 mps 753 mmHg 44%
19:00 +32°C° 0 mm 2 mps 753 mmHg 49%
20:00 +31°C° 0 mm 2 mps 754 mmHg 56%
21:00 +30°C° 0 mm 1 mps 754 mmHg 62%
22:00 +28°C° 0 mm 1 mps 755 mmHg 68%
23:00 +28°C° 0 mm 1 mps 755 mmHg 72%

6 March, Saturday

Time Temperature Precipitation Wind Pressure Humidity
00:00 +27°C° 0 mm 1 mps 755 mmHg 75%
01:00 +27°C° 0 mm 1 mps 755 mmHg 79%
02:00 +26°C° 0 mm 1 mps 754 mmHg 81%
03:00 +26°C° 0 mm 1 mps 754 mmHg 82%
04:00 +26°C° 0 mm 1 mps 754 mmHg 83%
05:00 +26°C° 0 mm 1 mps 755 mmHg 83%
06:00 +26°C° 0 mm 1 mps 755 mmHg 83%
07:00 +26°C° 0 mm 1 mps 756 mmHg 83%
08:00 +29°C° 0 mm 1 mps 756 mmHg 71%
09:00 +32°C° 0 mm 1 mps 756 mmHg 60%
10:00 +34°C° 0 mm 1 mps 756 mmHg 48%
11:00 +36°C° 0 mm 1 mps 755 mmHg 44%
12:00 +37°C° 0 mm 1 mps 754 mmHg 39%
13:00 +40°C° 0 mm 1 mps 753 mmHg 35%
14:00 +39°C° 0 mm 1 mps 753 mmHg 36%
15:00 +39°C° 0 mm 1 mps 752 mmHg 36%
16:00 +37°C° 0 mm 1 mps 751 mmHg 37%
17:00 +36°C° 0 mm 1 mps 752 mmHg 42%
18:00 +34°C° 0 mm 1 mps 752 mmHg 47%
19:00 +32°C° 0 mm 1 mps 753 mmHg 52%
20:00 +31°C° 0.2 mm 1 mps 754 mmHg 60%
21:00 +29°C° 0.2 mm 1 mps 754 mmHg 67%
22:00 +28°C° 0.2 mm 1 mps 755 mmHg 75%
23:00 +28°C° 0 mm 1 mps 755 mmHg 78%

7 March, Sunday

Time Temperature Precipitation Wind Pressure Humidity
00:00 +27°C° 0 mm 1 mps 755 mmHg 80%
01:00 +27°C° 0 mm 1 mps 755 mmHg 83%
02:00 +26°C° 0 mm 1 mps 754 mmHg 85%
03:00 +26°C° 0 mm 1 mps 754 mmHg 88%
04:00 +25°C° 0 mm 1 mps 754 mmHg 90%
05:00 +26°C° 0 mm 1 mps 754 mmHg 88%
06:00 +26°C° 0 mm 1 mps 755 mmHg 87%
07:00 +27°C° 0 mm 1 mps 755 mmHg 85%
08:00 +30°C° 0 mm 1 mps 756 mmHg 73%
09:00 +32°C° 0 mm 1 mps 756 mmHg 60%
10:00 +35°C° 0 mm 1 mps 756 mmHg 48%
11:00 +36°C° 0 mm 1 mps 755 mmHg 45%
12:00 +37°C° 0 mm 1 mps 754 mmHg 42%
13:00 +39°C° 0 mm 1 mps 753 mmHg 39%
14:00 +39°C° 0 mm 1 mps 752 mmHg 38%
15:00 +39°C° 0 mm 1 mps 751 mmHg 38%
16:00 +39°C° 0 mm 1 mps 751 mmHg 37%
17:00 +36°C° 0.1 mm 1 mps 751 mmHg 43%
18:00 +34°C° 0.1 mm 1 mps 752 mmHg 49%
19:00 +32°C° 0.1 mm 1 mps 752 mmHg 55%
20:00 +31°C° 1.8 mm 1 mps 753 mmHg 65%
21:00 +29°C° 1.8 mm 1 mps 754 mmHg 75%
22:00 +27°C° 1.8 mm 1 mps 754 mmHg 86%
23:00 +27°C° 1 mm 1 mps 754 mmHg 88%
Show more

We Need Your Consent

Meteoprog and our Service Providers may store and access personal data such as cookies, device identifiers or other similar technologies on your device and process such data to personalise content and ads, as well as provide social media features and to analyse the traffic.

  • Store and/or access information on your device

    Cookies, device identifiers or other information can be stored or accessed on your device for the purposes indicated above.

  • Personalised ads and content, ad and content measurement, audience insights, and products development

    Ads and content can be personalised based on a profile. More data can be added to better personalise ads and content. Ad and content performance can be measured. Insights about the audience who saw the ads and content can be derived. Such data can be used to develop or improve user’s experience, systems and software.

By clicking ‘I Agree’ you will allow the use of indicated cookies, device identifiers, web beacons or other similar technologies. Your settings can be changed in the browser on your device.

For certain purposes, legitimate interests may be relied on, rather than consent. You can read more about this in our Privacy and Cookie Policy.